When you browse on this site, cookies collect data to enhance your experience and personalize the content and advertising you see.
Visit our Privacy Policy to learn more. By continuing to use the site, you agree to this use of cookies and data.
  • In Hungary
  • List of Countries
  • For 7 days
  • Water Temperature
  • Weather Map
  • News
  • Weather Widgets
  • user-avatar
    Login

    Hourly Weather Scandicci

    Today, 18 November, Monday

    Time Temperature Precipitation Wind Pressure Humidity
    00:00 +10°C° 0.4 mm 1 mps 752 mmHg 90%
    01:00 +9°C° 0 mm 2 mps 752 mmHg 92%
    02:00 +9°C° 0.1 mm 2 mps 752 mmHg 92%
    03:00 +9°C° 0.1 mm 2 mps 753 mmHg 92%
    04:00 +8°C° 0.1 mm 2 mps 753 mmHg 92%
    05:00 +8°C° 0 mm 2 mps 753 mmHg 92%
    06:00 +9°C° 0 mm 1 mps 754 mmHg 92%
    07:00 +9°C° 0 mm 1 mps 754 mmHg 93%
    08:00 +11°C° 0 mm 1 mps 755 mmHg 89%
    09:00 +12°C° 0 mm 1 mps 755 mmHg 86%
    10:00 +13°C° 0 mm 1 mps 755 mmHg 82%
    11:00 +13°C° 0.3 mm 1 mps 755 mmHg 81%
    12:00 +14°C° 0.3 mm 2 mps 755 mmHg 80%
    13:00 +14°C° 0.3 mm 2 mps 755 mmHg 80%
    14:00 +14°C° 1 mm 2 mps 755 mmHg 82%
    15:00 +14°C° 1 mm 2 mps 755 mmHg 84%
    16:00 +13°C° 1 mm 1 mps 755 mmHg 86%
    17:00 +13°C° 0.5 mm 1 mps 755 mmHg 87%
    18:00 +13°C° 0.5 mm 1 mps 755 mmHg 88%
    19:00 +12°C° 0.5 mm 1 mps 755 mmHg 89%
    20:00 +12°C° 0.5 mm 2 mps 755 mmHg 90%
    21:00 +12°C° 0.5 mm 2 mps 755 mmHg 90%
    22:00 +12°C° 0.5 mm 2 mps 755 mmHg 90%
    23:00 +12°C° 0.2 mm 2 mps 755 mmHg 89%

    Tomorrow, 19 November, Tuesday

    Time Temperature Precipitation Wind Pressure Humidity
    00:00 +12°C° 0.2 mm 2 mps 755 mmHg 89%
    01:00 +12°C° 0.2 mm 2 mps 755 mmHg 89%
    02:00 +12°C° 0.1 mm 2 mps 755 mmHg 88%
    03:00 +13°C° 0.1 mm 2 mps 754 mmHg 88%
    04:00 +13°C° 0.1 mm 2 mps 754 mmHg 87%
    05:00 +13°C° 0.4 mm 2 mps 754 mmHg 87%
    06:00 +12°C° 0.4 mm 3 mps 754 mmHg 87%
    07:00 +12°C° 0.4 mm 3 mps 754 mmHg 87%
    08:00 +12°C° 0.6 mm 3 mps 754 mmHg 87%
    09:00 +12°C° 0.6 mm 3 mps 755 mmHg 87%
    10:00 +12°C° 0.6 mm 3 mps 755 mmHg 87%
    11:00 +13°C° 0.5 mm 3 mps 755 mmHg 85%
    12:00 +13°C° 0.5 mm 3 mps 755 mmHg 83%
    13:00 +15°C° 0.5 mm 2 mps 755 mmHg 82%
    14:00 +14°C° 2.5 mm 2 mps 755 mmHg 84%
    15:00 +14°C° 2.5 mm 2 mps 755 mmHg 87%
    16:00 +14°C° 2.5 mm 2 mps 755 mmHg 90%
    17:00 +13°C° 0.6 mm 1 mps 755 mmHg 89%
    18:00 +13°C° 0.6 mm 1 mps 755 mmHg 89%
    19:00 +13°C° 0.6 mm 1 mps 756 mmHg 88%
    20:00 +13°C° 0.1 mm 1 mps 756 mmHg 88%
    21:00 +13°C° 0.1 mm 1 mps 756 mmHg 87%
    22:00 +13°C° 0.1 mm 1 mps 756 mmHg 87%
    23:00 +12°C° 0 mm 1 mps 756 mmHg 86%

    Day after tomorrow, 20 November, Wednesday

    Time Temperature Precipitation Wind Pressure Humidity
    00:00 +12°C° 0 mm 1 mps 756 mmHg 85%
    01:00 +12°C° 0 mm 1 mps 756 mmHg 84%
    02:00 +12°C° 0 mm 1 mps 756 mmHg 84%
    03:00 +12°C° 0 mm 1 mps 755 mmHg 83%
    04:00 +12°C° 0 mm 1 mps 755 mmHg 83%
    05:00 +12°C° 0.2 mm 1 mps 755 mmHg 85%
    06:00 +12°C° 0.2 mm 1 mps 756 mmHg 87%
    07:00 +12°C° 0.2 mm 1 mps 756 mmHg 89%
    08:00 +12°C° 0.1 mm 1 mps 756 mmHg 89%
    09:00 +13°C° 0.1 mm 1 mps 756 mmHg 88%
    10:00 +13°C° 0.1 mm 1 mps 757 mmHg 87%
    11:00 +13°C° 0.1 mm 1 mps 757 mmHg 85%
    12:00 +14°C° 0.1 mm 1 mps 757 mmHg 83%
    13:00 +14°C° 0.1 mm 2 mps 757 mmHg 81%
    14:00 +14°C° 0.2 mm 2 mps 757 mmHg 83%
    15:00 +14°C° 0.2 mm 2 mps 757 mmHg 84%
    16:00 +13°C° 0.2 mm 2 mps 757 mmHg 86%
    17:00 +12°C° 0 mm 2 mps 757 mmHg 87%
    18:00 +12°C° 0 mm 1 mps 757 mmHg 88%
    19:00 +11°C° 0 mm 1 mps 757 mmHg 89%
    20:00 +11°C° 0 mm 1 mps 757 mmHg 89%
    21:00 +10°C° 0 mm 1 mps 758 mmHg 89%
    22:00 +10°C° 0 mm 1 mps 758 mmHg 88%
    23:00 +10°C° 0 mm 1 mps 758 mmHg 88%

    21 November, Thursday

    Time Temperature Precipitation Wind Pressure Humidity
    00:00 +10°C° 0 mm 1 mps 758 mmHg 88%
    01:00 +10°C° 0 mm 1 mps 758 mmHg 87%
    02:00 +10°C° 0 mm 1 mps 757 mmHg 87%
    03:00 +10°C° 0 mm 1 mps 757 mmHg 87%
    04:00 +10°C° 0 mm 1 mps 757 mmHg 86%
    05:00 +11°C° 0 mm 1 mps 757 mmHg 87%
    06:00 +11°C° 0 mm 1 mps 757 mmHg 87%
    07:00 +11°C° 0 mm 1 mps 757 mmHg 88%
    08:00 +11°C° 0 mm 1 mps 757 mmHg 86%
    09:00 +12°C° 0 mm 1 mps 757 mmHg 84%
    10:00 +13°C° 0 mm 1 mps 758 mmHg 83%
    11:00 +13°C° 0.2 mm 2 mps 757 mmHg 81%
    12:00 +14°C° 0.2 mm 2 mps 757 mmHg 80%
    13:00 +14°C° 0.2 mm 2 mps 757 mmHg 78%
    14:00 +14°C° 0.3 mm 2 mps 757 mmHg 79%
    15:00 +13°C° 0.3 mm 2 mps 757 mmHg 81%
    16:00 +13°C° 0.3 mm 1 mps 757 mmHg 82%
    17:00 +12°C° 0.1 mm 1 mps 757 mmHg 83%
    18:00 +12°C° 0.1 mm 1 mps 757 mmHg 84%
    19:00 +11°C° 0.1 mm 1 mps 757 mmHg 86%
    20:00 +11°C° 0 mm 1 mps 757 mmHg 86%
    21:00 +11°C° 0 mm 1 mps 758 mmHg 86%
    22:00 +11°C° 0 mm 1 mps 758 mmHg 87%
    23:00 +11°C° 0 mm 1 mps 758 mmHg 87%

    22 November, Friday

    Time Temperature Precipitation Wind Pressure Humidity
    00:00 +10°C° 0 mm 1 mps 758 mmHg 87%
    01:00 +10°C° 0 mm 1 mps 758 mmHg 87%
    02:00 +10°C° 0 mm 1 mps 758 mmHg 87%
    03:00 +10°C° 0 mm 1 mps 758 mmHg 86%
    04:00 +10°C° 0 mm 1 mps 757 mmHg 86%
    05:00 +10°C° 0 mm 1 mps 757 mmHg 86%
    06:00 +10°C° 0 mm 1 mps 758 mmHg 87%
    07:00 +10°C° 0 mm 1 mps 758 mmHg 87%
    08:00 +11°C° 0 mm 1 mps 758 mmHg 84%
    09:00 +12°C° 0 mm 1 mps 758 mmHg 80%
    10:00 +13°C° 0 mm 1 mps 758 mmHg 77%
    11:00 +14°C° 0.1 mm 1 mps 758 mmHg 77%
    12:00 +14°C° 0.1 mm 1 mps 757 mmHg 77%
    13:00 +15°C° 0.1 mm 1 mps 757 mmHg 76%
    14:00 +14°C° 0.2 mm 1 mps 757 mmHg 79%
    15:00 +14°C° 0.2 mm 1 mps 757 mmHg 82%
    16:00 +13°C° 0.2 mm 1 mps 757 mmHg 84%
    17:00 +13°C° 0.1 mm 1 mps 757 mmHg 86%
    18:00 +12°C° 0.1 mm 1 mps 757 mmHg 87%
    19:00 +12°C° 0.1 mm 1 mps 757 mmHg 89%
    20:00 +11°C° 0 mm 1 mps 757 mmHg 89%
    21:00 +11°C° 0 mm 1 mps 757 mmHg 89%
    22:00 +11°C° 0 mm 1 mps 757 mmHg 90%
    23:00 +11°C° 0 mm 1 mps 756 mmHg 90%

    23 November, Saturday

    Time Temperature Precipitation Wind Pressure Humidity
    00:00 +11°C° 0 mm 1 mps 756 mmHg 90%
    01:00 +11°C° 0 mm 1 mps 756 mmHg 90%
    02:00 +11°C° 0 mm 1 mps 755 mmHg 91%
    03:00 +11°C° 0 mm 1 mps 755 mmHg 91%
    04:00 +11°C° 0 mm 1 mps 754 mmHg 92%
    05:00 +11°C° 0 mm 1 mps 754 mmHg 91%
    06:00 +11°C° 0 mm 1 mps 754 mmHg 91%
    07:00 +11°C° 0 mm 1 mps 753 mmHg 91%
    08:00 +10°C° 0.7 mm 2 mps 753 mmHg 91%
    09:00 +12°C° 0.7 mm 2 mps 753 mmHg 91%
    10:00 +12°C° 0.7 mm 2 mps 752 mmHg 92%
    11:00 +12°C° 2.1 mm 2 mps 752 mmHg 93%
    12:00 +12°C° 2.1 mm 2 mps 751 mmHg 94%
    13:00 +12°C° 2.1 mm 3 mps 750 mmHg 95%
    14:00 +13°C° 1.2 mm 2 mps 749 mmHg 94%
    15:00 +13°C° 1.2 mm 2 mps 749 mmHg 94%
    16:00 +13°C° 1.2 mm 2 mps 748 mmHg 94%
    17:00 +13°C° 2.6 mm 2 mps 748 mmHg 94%
    18:00 +13°C° 2.6 mm 2 mps 747 mmHg 95%
    19:00 +13°C° 2.6 mm 1 mps 747 mmHg 95%
    20:00 +13°C° 2.2 mm 1 mps 747 mmHg 95%
    21:00 +13°C° 2.2 mm 1 mps 747 mmHg 95%
    22:00 +13°C° 2.2 mm 1 mps 747 mmHg 95%
    23:00 +13°C° 0.8 mm 2 mps 746 mmHg 93%
    Show more